Location: Home
(42.5358°N, 72.7383°W)
Time: 21:57:16
(UTC-05:00)

Vanguard 2 Rocket - Pass Details

Date: 30 November 2021
Orbit: 554 x 3325 km, 32.9° (Epoch: 21 January)

Event Time Altitude Azimuth Distance (km) Brightness Sun altitude
Rises 22:56:17 0° 271° (W) 4,951 - -67.4°
Reaches altitude 10° 22:59:14 10° 264° (W) 4,283 - -67.6°
Maximum altitude 23:10:55 45° 198° (SSW) 3,300 - -68.4°
Drops below altitude 10° 23:28:18 10° 134° (SE) 6,213 - -69.2°
Sets 23:33:42 0° 129° (SE) 7,305 - -69.3°
